Location: Chamerau
(49.1969°N, 12.7525°E)
Time: 05:17:27
(UTC+00:00)

Meteor 1-24 Rocket - Pass Details

Date: 18 September 2020
Orbit: 790 x 927 km, 81.2° (Epoch: 22 October)

Event Time Altitude Azimuth Distance (km) Brightness Sun altitude
Rises 19:05:15 0° 352° (N) 3,341 7.3 -18.3°
Reaches altitude 10° 19:07:44 10° 359° (N) 2,422 6.4 -18.6°
Maximum altitude 19:12:57 44° 71° (ENE) 1,153 4.1 -19.4°
Enters shadow 19:14:23 37° 108° (ESE) 1,298 4.1 -19.6°
